FW5345 Weather Reports


time (UTC)temp
C
wind
direction
speed
KPH
gust
KPH
rain 1hr
cm
rain 24hr
cm
rain mn
cm
humidity
%
barometer
mb
20200531081527 8 341 3.2 0.0 0.00 0.25 0.00 76 1014.6
20200531080023 9 320 3.2 0.0 0.00 0.25 0.00 75 1014.6
20200531074522 9 276 1.6 0.0 0.00 0.25 0.00 74 1014.2
20200531073023 9 235 4.8 0.0 0.00 0.25 0.00 74 1014.2
20200531071517 9 258 4.8 0.0 0.00 0.25 0.00 75 1014.2
20200531070023 9 270 3.2 0.0 0.00 0.25 0.00 76 1014.2
20200531064523 9 260 1.6 0.0 0.00 0.25 0.00 76 1014.6
20200531063015 9 314 4.8 0.0 0.00 0.25 0.00 76 1014.6
20200531061514 10 231 3.2 0.0 0.00 0.25 0.00 76 1014.6
20200531060016 10 254 6.4 0.0 0.00 0.25 0.00 76 1014.6
20200531054515 10 255 4.8 0.0 0.00 0.25 0.00 76 1014.6
20200531053014 9 287 1.6 0.0 0.00 0.25 0.00 77 1014.6
20200531051528 9 303 3.2 0.0 0.00 0.25 0.00 77 1014.6
20200531050015 9 288 3.2 0.0 0.00 0.25 0.00 77 1014.2
20200531044515 9 246 3.2 0.0 0.00 0.25 0.00 77 1014.2
20200531043015 9 273 1.6 0.0 0.00 0.25 0.00 76 1014.2
20200531041514 9 252 4.8 0.0 0.00 0.25 0.00 75 1014.2
20200531040014 10 278 4.8 0.0 0.00 0.25 0.00 74 1014.2
20200531034513 10 316 6.4 0.0 0.00 0.25 0.00 71 1014.2
20200531033023 10 299 8.0 0.0 0.00 0.25 0.00 70 1013.5
20200531031514 10 289 9.7 0.0 0.00 0.25 0.00 74 1013.2
20200531030022 10 293 6.4 0.0 0.00 0.25 0.00 77 1013.5
20200531024523 10 301 8.0 0.0 0.00 0.25 0.00 79 1013.5
20200531023023 9 306 6.4 0.0 0.00 0.25 0.00 80 1013.5
20200531021523 9 320 8.0 0.0 0.00 0.25 0.00 79 1013.2
20200531020022 10 349 6.4 0.0 0.00 0.25 0.00 77 1013.2
20200531014523 10 312 6.4 0.0 0.00 0.25 0.00 76 1013.2
20200531013022 10 316 9.7 0.0 0.00 0.25 0.00 77 1012.8
20200531011522 10 327 8.0 0.0 0.00 0.25 0.00 80 1012.5
20200531010022 10 323 11.3 0.0 0.00 0.25 0.00 81 1012.1
20200531004523 10 274 6.4 0.0 0.00 0.25 0.00 82 1012.1
20200531003022 10 339 12.9 0.0 0.00 0.25 0.00 82 1012.1
20200531001523 10 316 6.4 0.0 0.00 0.25 0.00 82 1012.1
20200531000023 11 287 9.7 0.0 0.00 0.25 0.00 82 1011.4
20200530234522 11 348 6.4 0.0 0.25 0.25 0.00 83 1011.0
20200530233022 11 65 4.8 0.0 0.25 0.25 0.00 81 1010.7
20200530231523 10 142 11.3 0.0 0.25 0.25 0.00 84 1010.0
20200530230023 11 13 6.4 0.0 0.25 0.25 0.00 82 1010.7
20200530224522 12 50 6.4 0.0 0.00 0.00 0.00 73 1011.4
20200530223022 12 360 9.7 0.0 0.00 0.00 0.00 70 1011.0
20200530221522 13 62 4.8 0.0 0.00 0.00 0.00 69 1010.3
20200530220022 14 314 8.0 0.0 0.00 0.00 0.00 68 1008.9
20200530214522 15 301 4.8 0.0 0.00 0.00 0.00 66 1008.5
20200530213022 16 332 9.7 0.0 0.00 0.00 0.00 63 1008.2
20200530211522 17 10 8.0 0.0 0.00 0.00 0.00 61 1008.2
20200530210023 17 305 6.4 0.0 0.00 0.00 0.00 61 1007.8
20200530204522 17 286 11.3 0.0 0.00 0.00 0.00 59 1007.8
20200530203022 18 303 11.3 0.0 0.00 0.00 0.00 58 1007.5
20200530201524 20 313 14.5 0.0 0.00 0.00 0.00 58 1006.8
20200530200021 21 311 11.3 0.0 0.00 0.00 0.00 56 1006.4
20200530194523 22 285 9.7 0.0 0.00 0.00 0.00 55 1006.4
20200530193022 23 310 12.9 0.0 0.00 0.00 0.00 52 1006.1
20200530191523 25 277 6.4 0.0 0.00 0.00 0.00 51 1006.1
20200530190022 25 299 6.4 0.0 0.00 0.00 0.00 57 1005.7
20200530184523 25 2 3.2 0.0 0.00 0.00 0.00 57 1005.7
20200530183023 24 23 4.8 0.0 0.00 0.00 0.00 60 1005.7
20200530181522 23 20 1.6 0.0 0.00 0.00 0.00 62 1006.1
20200530180023 22 177 1.6 0.0 0.00 0.00 0.00 63 1006.4
20200530174522 21 119 1.6 0.0 0.00 0.00 0.00 65 1006.8
20200530173022 20 337 0.0 0.0 0.00 0.00 0.00 66 1006.8
20200530171522 20 319 1.6 0.0 0.00 0.00 0.00 68 1007.1
20200530170023 20 322 4.8 0.0 0.00 0.00 0.00 70 1007.1
20200530164521 20 327 4.8 0.0 0.00 0.00 0.00 68 1007.5
20200530163022 20 358 3.2 0.0 0.00 0.00 0.00 66 1007.5
20200530161523 20 97 1.6 0.0 0.00 0.00 0.00 66 1008.2
20200530160023 19 112 4.8 0.0 0.00 0.00 0.00 67 1008.2
20200530154522 18 126 3.2 0.0 0.00 0.00 0.00 68 1008.5
20200530153022 18 34 0.0 0.0 0.00 0.00 0.00 71 1008.5
20200530151523 17 5 3.2 0.0 0.00 0.00 0.00 75 1008.5
20200530150023 17 30 1.6 0.0 0.00 0.00 0.00 77 1008.5
20200530144523 17 48 6.4 0.0 0.00 0.00 0.00 80 1008.9
20200530143022 16 101 1.6 0.0 0.00 0.00 0.00 82 1008.9
20200530141523 16 24 4.8 0.0 0.00 0.00 0.00 84 1009.2
20200530140022 15 38 4.8 0.0 0.00 0.00 0.00 84 1009.2
20200530134523 15 350 3.2 0.0 0.00 0.00 0.00 84 1008.9
20200530133022 15 186 3.2 0.0 0.00 0.00 0.00 85 1008.2
20200530131523 14 138 0.0 0.0 0.00 0.00 0.00 85 1008.2
20200530130022 15 112 0.0 0.0 0.00 0.00 0.00 85 1008.5
20200530124523 15 121 3.2 0.0 0.00 0.00 0.00 84 1008.5
20200530123022 15 198 1.6 0.0 0.00 0.00 0.00 83 1008.5
20200530121522 15 153 1.6 0.0 0.00 0.00 0.00 82 1008.9
20200530120022 15 171 1.6 0.0 0.00 0.00 0.00 82 1008.9
20200530114522 15 195 3.2 0.0 0.00 0.00 0.00 83 1008.9
20200530113021 15 137 3.2 0.0 0.00 0.00 0.00 83 1008.9
20200530111522 15 157 3.2 0.0 0.00 0.00 0.00 82 1008.9
20200530110022 15 191 3.2 0.0 0.00 0.00 0.00 81 1008.5
20200530104522 15 133 1.6 0.0 0.00 0.00 0.00 80 1008.9
20200530103023 15 173 3.2 0.0 0.00 0.00 0.00 80 1008.9
20200530101514 15 123 4.8 0.0 0.00 0.00 0.00 79 1009.2
20200530093022 15 183 4.8 0.0 0.00 0.00 0.00 80 1009.6
20200530090023 16 171 1.6 0.0 0.00 0.00 0.00 77 1010.0
20200530084514 16 164 3.2 0.0 0.00 0.00 0.00 77 1010.0
20200530083015 16 142 1.6 0.0 0.00 0.00 0.00 77 1010.3